Tracking 23764 objects as of 18-Oct-2021
HD Live streaming from Space Station
objects crossing your sky now

SPACEBEE-7

Track SPACEBEE-7 now!
10-day predictions


NORAD ID: 43816
Int'l Code: 2018-099BL
Perigee: 576.5 km
Apogee: 594.3 km
Inclination: 97.7 °
Period: 96.2 minutes
Semi major axis: 6956 km
RCS: Unknown
Launch date: December 3, 2018
Source: United States (US)
Launch site: AIR FORCE WESTERN TEST RANGE (AFWTR)
aabbcc
Your satellite tracking list
Your tracking list is empty




NASA's NSSDC Master Catalog

Two Line Element Set (TLE):
1 43816U 18099BL  21290.13827417  .00001458  00000-0  13377-3 0  9998
2 43816  97.6576 358.9117 0012825 357.7355   2.3806 14.96334228156251
Source of the keplerian elements: AFSPC